{"data":{"norad_id":61753,"intl_designator":"2024-199U","name":"HORS 3 (RS81S)","alt_names":[],"object_type":"PAYLOAD","status":"ACTIVE","operator":null,"country":"CIS","launch_date":"2024-11-04","launch_site_code":"VOSTO","launch_vehicle":null,"mission":null,"orbit_class":"UNKNOWN","rcs_meters":null,"size_class":null,"mass_kg":null,"dimensions":null,"purposes":["comms"],"wikipedia_slug":null,"has_3d_model":false,"image_url":null,"decayed_at":null,"tle_current":{"epoch":"2026-09-19T22:24:21.347424Z","epoch_age_seconds":63397,"freshness":"FRESH","line1":"1 61753U 24199U   26262.93358041  .00037717  00000+0  43349-3 0  9998","line2":"2 61753  97.2793 141.0433 0002484 300.7001  59.4012 15.61941215152314","mean_motion":15.61941215,"eccentricity":0.0002484,"inclination_deg":97.2793,"raan_deg":141.0433,"arg_perigee_deg":300.7001,"mean_anomaly_deg":59.4012,"bstar":0.00043349,"rev_number":15231,"period_min":92.192970271292,"perigee_km":380.37090304236,"apogee_km":383.72936401029,"semimajor_km":6760.1871335263,"source":"CELESTRAK","updated_at":"2026-09-20T09:00:45.240545Z"}}}